Weather History for KMEZ - November, 2013

Change the Weather History Date:

Monday, November 4, 2013

  Actual Average (KDEQ) Record (KDEQ)
Temperature  
Mean Temperature 56 °F 57 °F  
Max Temperature 59 °F 70 °F 83 °F (1987)
Min Temperature 53 °F 44 °F 22 °F (1991)
Degree Days  
Heating Degree Days 9 8  
Month to date heating degree days 32  
Since 1 July heating degree days 165  
Cooling Degree Days 0 1  
Month to date cooling degree days 4  
Year to date cooling degree days 1938  
Growing Degree Days 6 (Base 50)    
Moisture  
Dew Point 44 °F    
Average Humidity 65    
Maximum Humidity 100    
Minimum Humidity 54    
Precipitation  
Precipitation 0.26 in 0.18 in 3.15 in (1959)
Month to date precipitation 0.67  
Year to date precipitation 40.39  
Snow  
Snow 0.00 in - - ()
Month to date snowfall  
Since 1 July snowfall  
Since 1 September snowfall  
Snow Depth -    
Sea Level Pressure  
Sea Level Pressure 30.14 in    
Wind  
Wind Speed 4 mph (SE)    
Max Wind Speed 9 mph    
Max Gust Speed -    
Visibility 8 miles    
Events Rain    
T = Trace of Precipitation, MM = Missing Value Source: NWS Daily Summary

Daily Weather History Graph

Daily Weather History Graph

Search for Another Location

Airport or City:

Trip Planner

Search our weather history database for the weather conditions in past years. The results will help you decide how hot, cold, wet, or windy it might be!

Date:

Astronomy

Nov. 04, 2013 Rise Set
Actual Time 6:40 AM CST 5:20 PM CST
Civil Twilight 6:13 AM CST 5:46 PM CST
Nautical Twilight 5:44 AM CST 6:16 PM CST
Astronomical Twilight 5:14 AM CST 6:45 PM CST
Moon 7:49 AM CST (11/4) 6:28 PM CST (11/4)
Length of Visible Light 11h 32m
Length of Day
10h 40m
New Moon, 2% of the Moon is Illuminated
Nov 4
New Moon
Nov 9
First Quarter
Nov 17
Full
Nov 25
Last Quarter
Dec 2
New

Hourly Weather History & Observations

Time (CST) Temp. Dew Point Humidity Pressure Visibility Wind Dir Wind Speed Gust Speed Precip Events Conditions
12:15 AM 55.4 °F 39.2 °F 54% 30.09 in 10.0 mi SSE 8.1 mph - N/A   Clear
12:35 AM 55.4 °F 39.2 °F 54% 30.08 in 10.0 mi SE 3.5 mph - N/A   Clear
12:55 AM 55.4 °F 39.2 °F 54% 30.09 in 10.0 mi SSE 3.5 mph - N/A   Clear
1:15 AM 55.4 °F 39.2 °F 54% 30.10 in 10.0 mi SE 4.6 mph - N/A   Clear
1:35 AM 55.4 °F 39.2 °F 54% 30.10 in 10.0 mi Calm Calm - N/A   Clear
1:55 AM 55.4 °F 39.2 °F 54% 30.11 in 10.0 mi SE 5.8 mph - N/A   Clear
2:15 AM 55.4 °F 39.2 °F 54% 30.12 in 10.0 mi South 4.6 mph - N/A   Clear
2:35 AM 55.4 °F 39.2 °F 54% 30.12 in 10.0 mi Calm Calm - N/A   Clear
2:55 AM 55.4 °F 41.0 °F 58% 30.12 in 10.0 mi Calm Calm - N/A   Clear
3:15 AM 55.4 °F 41.0 °F 58% 30.11 in 10.0 mi SSE 5.8 mph - N/A   Clear
3:35 AM 55.4 °F 41.0 °F 58% 30.12 in 10.0 mi SSE 3.5 mph - N/A   Clear
3:55 AM 55.4 °F 41.0 °F 58% 30.12 in 10.0 mi South 5.8 mph - N/A   Clear
4:15 AM 55.4 °F 41.0 °F 58% 30.11 in 10.0 mi South 6.9 mph - N/A   Scattered Clouds
4:35 AM 55.4 °F 41.0 °F 58% 30.09 in 10.0 mi SSE 4.6 mph - N/A   Scattered Clouds
4:55 AM 55.4 °F 41.0 °F 58% 30.11 in 10.0 mi South 5.8 mph - N/A   Clear
5:15 AM 55.4 °F 41.0 °F 58% 30.10 in 10.0 mi South 5.8 mph - N/A   Clear
5:35 AM 55.4 °F 42.8 °F 63% 30.10 in 10.0 mi Calm Calm - N/A   Clear
5:55 AM 55.4 °F 42.8 °F 63% 30.11 in 10.0 mi SSE 4.6 mph - N/A   Clear
6:15 AM 55.4 °F 42.8 °F 63% 30.11 in 10.0 mi Calm Calm - N/A   Mostly Cloudy
6:35 AM 55.4 °F 41.0 °F 58% 30.11 in 10.0 mi SE 3.5 mph - N/A   Mostly Cloudy
6:55 AM 55.4 °F 41.0 °F 58% 30.11 in 10.0 mi Calm Calm - N/A   Overcast
7:15 AM 55.4 °F 41.0 °F 58% 30.12 in 10.0 mi SSE 5.8 mph - N/A   Overcast
7:35 AM 55.4 °F 42.8 °F 63% 30.13 in 10.0 mi Calm Calm - N/A   Overcast
7:55 AM 57.2 °F 42.8 °F 59% 30.14 in 10.0 mi ESE 3.5 mph - N/A   Overcast
8:15 AM 55.4 °F 42.8 °F 63% 30.15 in 10.0 mi SE 4.6 mph - N/A   Overcast
8:35 AM 55.4 °F 42.8 °F 63% 30.15 in 10.0 mi SE 6.9 mph - N/A Rain Light Rain
8:55 AM 55.4 °F 44.6 °F 67% 30.15 in 10.0 mi SE 4.6 mph - N/A Rain Light Rain
9:15 AM 55.4 °F 44.6 °F 67% 30.15 in 10.0 mi SSE 5.8 mph - N/A   Light Drizzle
9:35 AM 57.2 °F 44.6 °F 63% 30.17 in 10.0 mi SSE 5.8 mph - N/A   Overcast
9:55 AM 55.4 °F 44.6 °F 67% 30.18 in 10.0 mi SE 6.9 mph - N/A Rain Light Rain
10:15 AM 55.4 °F 44.6 °F 67% 30.17 in 10.0 mi SE 4.6 mph - N/A   Overcast
10:35 AM 55.4 °F 44.6 °F 67% 30.17 in 10.0 mi SE 5.8 mph - N/A   Overcast
10:55 AM 57.2 °F 44.6 °F 63% 30.17 in 10.0 mi SSE 9.2 mph - N/A   Overcast
11:15 AM 57.2 °F 46.4 °F 67% 30.17 in 10.0 mi SSE 4.6 mph - N/A   Overcast
11:35 AM 57.2 °F 46.4 °F 67% 30.16 in 10.0 mi SSE 3.5 mph - N/A   Overcast
11:55 AM 59.0 °F 46.4 °F 63% 30.15 in 10.0 mi Calm Calm - N/A   Overcast
12:15 PM 59.0 °F 46.4 °F 63% 30.15 in 10.0 mi SE 5.8 mph - N/A Rain Light Rain
12:35 PM 59.0 °F 48.2 °F 67% 30.14 in 10.0 mi South 4.6 mph - N/A   Overcast
12:55 PM 57.2 °F 48.2 °F 72% 30.14 in 10.0 mi SSE 4.6 mph - N/A   Overcast
1:15 PM 57.2 °F 50.0 °F 77% 30.14 in 10.0 mi South 6.9 mph - N/A Rain Rain
1:35 PM 57.2 °F 50.0 °F 77% 30.13 in 10.0 mi Calm Calm - N/A   Drizzle
1:55 PM 57.2 °F 51.8 °F 82% 30.13 in 10.0 mi Calm Calm - N/A   Drizzle
2:15 PM 57.2 °F 53.6 °F 88% 30.13 in 10.0 mi SE 3.5 mph - 0.02 in Rain Light Rain
2:35 PM 55.4 °F 55.4 °F 100% 30.13 in 10.0 mi Calm Calm - 0.03 in   Drizzle
2:55 PM 57.2 °F 57.2 °F 100% 30.13 in 10.0 mi Calm Calm - 0.05 in Rain Rain
3:15 PM 57.2 °F 57.2 °F 100% 30.13 in 7.0 mi East 3.5 mph - 0.01 in Rain Rain
3:35 PM 57.2 °F - N/A% 30.13 in 10.0 mi Calm Calm - 0.03 in Rain Rain
3:55 PM 57.2 °F - N/A% 30.13 in 7.0 mi East 3.5 mph - 0.04 in Rain Light Rain
4:15 PM 55.4 °F - N/A% 30.14 in 4.0 mi ENE 4.6 mph - 0.03 in Rain Light Rain
4:35 PM 55.4 °F - N/A% 30.14 in 4.0 mi East 4.6 mph - 0.06 in Rain Light Rain
4:55 PM 55.4 °F - N/A% 30.14 in 3.0 mi ENE 4.6 mph - 0.08 in Rain Light Rain
5:15 PM 55.4 °F - N/A% 30.14 in 3.0 mi ENE 3.5 mph - 0.01 in Rain Light Rain
5:35 PM 55.4 °F - N/A% 30.15 in 4.0 mi East 3.5 mph - 0.01 in Rain Light Rain
5:55 PM 55.4 °F - N/A% 30.15 in 5.0 mi Calm Calm - 0.02 in Rain Rain
6:15 PM 55.4 °F - N/A% 30.15 in 5.0 mi East 3.5 mph - 0.01 in Rain Rain
6:35 PM 55.4 °F - N/A% 30.16 in 5.0 mi East 3.5 mph - 0.02 in Rain Rain
6:55 PM 55.4 °F - N/A% 30.17 in 5.0 mi East 4.6 mph - 0.03 in Rain Rain
7:15 PM 55.4 °F - N/A% 30.17 in 5.0 mi ENE 3.5 mph - N/A Rain Light Rain
7:35 PM 55.4 °F - N/A% 30.17 in 4.0 mi ENE 3.5 mph - N/A   Light Drizzle
7:55 PM 55.4 °F - N/A% 30.18 in 4.0 mi Calm Calm - 0.01 in Rain Rain
8:15 PM 55.4 °F - N/A% 30.18 in 4.0 mi ENE 3.5 mph - N/A   Drizzle
8:35 PM 55.4 °F - N/A% 30.18 in 4.0 mi ENE 3.5 mph - 0.01 in   Drizzle
8:55 PM 53.6 °F - N/A% 30.18 in 3.0 mi East 3.5 mph - 0.01 in Rain Rain
9:15 PM 55.4 °F - N/A% 30.18 in 3.0 mi Calm Calm - 0.01 in Rain Rain
9:35 PM 55.4 °F - N/A% 30.18 in 3.0 mi East 3.5 mph - 0.01 in   Overcast
9:55 PM 55.4 °F - N/A% 30.18 in 4.0 mi Calm Calm - 0.01 in Rain Rain
10:15 PM 55.4 °F - N/A% 30.19 in 4.0 mi East 3.5 mph - 0.01 in   Light Drizzle
10:35 PM 55.4 °F - N/A% 30.18 in 4.0 mi East 3.5 mph - 0.01 in Rain Rain
10:55 PM 55.4 °F - N/A% 30.18 in 4.0 mi Calm Calm - 0.01 in   Haze
11:15 PM 55.4 °F - N/A% 30.18 in 4.0 mi Calm Calm - N/A   Haze
11:35 PM 55.4 °F - N/A% 30.18 in 4.0 mi Calm Calm - N/A   Haze
11:55 PM 55.4 °F - N/A% 30.18 in 4.0 mi East 3.5 mph - N/A   Haze